Regional Weather Roundup
Issued by NWS Charleston, SC

Home | Current Version | Previous Version | Text Only | Print | Product List | Glossary On
Versions: 1 2 3 4 5 6 7 8 9 10 11 12 13 14 15 16 17 18 19 20 21 22 23 24 25 26 27 28 29 30 31 32 33 34 35 36 37 38 39 40 41 42 43 44 45 46 47 48 49 50
000
ASUS42 KCHS 020325
RWRCHS

REGIONAL WEATHER ROUNDUP
NATIONAL WEATHER SERVICE CHARLESTON SC
1100 PM EDT WED OCT 01 2014

NOTE: "FAIR" INDICATES FEW OR NO CLOUDS BELOW 12,000 FEET WITH NO
SIGNIFICANT WEATHER AND/OR OBSTRUCTIONS TO VISIBILITY.

NOT ALL STATIONS ARE QUALITY CONTROLLED BY THE NATIONAL
WEATHER SERVICE. USE DATA WITH CAUTION...ESPECIALLY
DEWPOINT OBSERVATIONS.

SCZ027-030-031-034>040-042>050-020400-
...SOUTH CAROLINA...

CITY           SKY/WX    TMP DP  RH WIND       PRES   REMARKS
N CHARLESTON   PTCLDY    69  64  84 CALM      30.03R
WATERFRONT PRK   N/A     72 N/A N/A CALM        N/A
FORT JOHNSON   NOT AVBL
MOUNT PLEASANT FAIR      64  64 100 CALM      30.04R FOG
JOHNS ISLAND   CLEAR     66  66 100 CALM      30.04R
PINOPOLIS        N/A     73  64  73 S2        29.96R
MONCKS CORNER  FAIR      66  66 100 CALM      30.03S
SUMMERVILLE      N/A     64  64 100 CALM      30.05R
BEAUFORT MCAS  CLEAR     70  67  90 CALM      30.03R
BEAUFORT ARPT  FAIR      68  68 100 CALM      30.03R
HILTON HEAD IS PTCLDY    70  68  94 NE5       30.04S
GEORGETOWN     NOT AVBL
WALTERBORO     CLEAR     68 N/A N/A CALM      30.05R
ORANGEBURG     CLEAR     69  65  86 S3        30.04R
BARNWELL       FAIR      70  64  83 S3        30.05R
AIKEN          FAIR      66  64  94 CALM      30.08R
MANNING        FAIR      68 N/A N/A CALM      30.04R
KINGSTREE      NOT AVBL
COLUMBIA       PTCLDY    68  62  81 CALM      30.02R
SUMTER         CLEAR     67  64  87 S5        30.02R
FLORENCE       MOCLDY    71  66  84 E3        30.04R
MYRTLE BEACH   CLEAR     68  64  88 CALM      30.04
N MYRTLE BEACH CLEAR     66  64  93 CALM      30.03R

$$

GAZ063-065-086>088-099>101-113>116-118-119-134-136>141-150-020400-
...GEORGIA...

CITY           SKY/WX    TMP DP  RH WIND       PRES   REMARKS
SAVANNAH ARPT  PTCLDY    70  64  81 CALM      30.04R
HUNTER AAF     CLEAR     68  66  92 CALM      30.01R
FORT STEWART   CLEAR     66  64  93 CALM      30.02R
STATESBORO     NOT AVBL
SYLVANIA       CLEAR     69  68  97 CALM      30.05R
CLAXTON        FAIR      68  68 100 CALM      30.04R
THOMSON        CLEAR     67  67 100 CALM      30.08R
AUGUSTA-BUSH   CLEAR     64  62  93 CALM      30.02R
AUGUSTA-DANIEL CLEAR     75  60  59 SE3       30.03R
SWAINSBORO     FAIR      73  70  88 S3        30.05R
VIDALIA        CLEAR     70  68  94 CALM      30.04R
ALMA           PTCLDY    69  67  93 CALM      30.02R
WAYCROSS       CLEAR     72  71  98 CALM      30.03R
JESUP          FAIR      70  68  94 CALM      30.03S
BRUNSWICK      CLOUDY    70  68  94 CALM      30.03S
SAINT SIMONS   CLOUDY    75  69  81 E6        30.02R

$$

SCZ027-028-034-036>038-045-046-048>050-GAZ119-141-020400-
...LAKE AND SUPPLEMENTAL COASTAL OBSERVATIONS...

STATION/POSITION TIME  TEMP    WIND        PRES    WAVE   SWELL
                       AIR SEA DIR/SP/G            HT/PER HT/PER/DIR
                 (UTC) (F)     (DEG/KT/KT) (MB)    (FT/S) (FT/S/D)
UPR LAKE MARION  NOT AVBL
WINYAH BAY       0300   67        CALM     1017.0R
LAKE MURRAY      0300   76     150/  4/  5 1016.3R
ACE BASIN NERRS  0300   67        CALM     1017.0S
FORT PULASKI     0200   76                   N/A
SAPELO ISLAND    NOT AVBL

$$

ANZ835-935-AMZ111-154-330-350-352-354-374-450-454-472-020400-
...C-MAN AND BUOY OBSERVATIONS...

STATION/POSITION TIME  TEMP    WIND        PRES    WAVE   SWELL
                       AIR SEA DIR/SP/G            HT/PER HT/PER/DIR
                 (UTC) (F)     (DEG/KT/KT) (MB)    (FT/S) (FT/S/D)
FOLLY BEACH CMAN 0300   75      90/  5/  5 1017.3R
BUOY 41004       0300   78 81   80/  8/ 12 1016.4R   2/ 7   2/ 7
BUOY 41008       0300   78 79   90/ 10/ 12 1016.5R   2/ 7   2/100/ 7
5E ST. MARYS GA  0300      79                N/A     3/ 4
FRYING PAN BUOY  NOT AVBL
BUOY 41025       0300   71      10/ 14/ 16 1016.4R   3/12   2/ 60/12
CAPE LOOKOUT NC  0300   73      50/  9/ 10 1016.7R
BUOY 41002       0245   79 80   30/ 14/ 16 1015.2R   4/ 7   2/ 7
BUOY 41010       0300   80 85   50/ 14/ 16 1015.0R   3/ 8   2/ 30/ 8
BUOY 41012       NOT AVBL
ST AUGUSTINE FL  0300   79      70/  8/ 10 1016.3R
CAPERS NEARSHORE 0200   75     130/  4/  6   N/A
FRIPP NEARSHORE  NOT AVBL


$$



USA.gov is the U.S. government's official web portal to all federal, state and local government web resources and services.